Location: Santa Barbara
(34.4500°N, 119.7700°W)
Time: 20:58:55
(UTC-07:00)

Cosmos 1626 Rocket - Visible Passes

Search period start: 27 May 2016 00:00
Search period end: 06 June 2016 00:00
Orbit: 603 x 632 km, 82.5° (Epoch: 27 May)

Date Brightness Start Highest point End Pass type
(mag) Time Alt. Az. Time Alt. Az. Time Alt. Az.
27 May 3.6 21:07:09 10° S 21:11:29 57° E 21:15:51 10° NNE visible
28 May 3.8 21:23:55 10° SSW 21:28:20 71° W 21:32:45 10° N visible
29 May 5.1 21:41:12 10° SW 21:45:16 35° W 21:49:20 10° NNW visible
30 May 6.2 21:59:09 10° WSW 22:02:17 19° WNW 22:05:25 10° NNW visible
31 May 3.7 20:36:54 10° S 20:41:14 58° E 20:45:34 10° NNE visible
01 Jun 3.9 20:53:41 10° SSW 20:58:05 70° W 21:02:29 10° N visible
02 Jun 5.3 21:10:59 10° SW 21:15:00 35° W 21:19:03 10° NNW visible
03 Jun 6.4 21:28:57 10° WSW 21:32:02 18° WNW 21:35:07 10° NNW visible
